Regional Weather Roundup
Issued by NWS

Home | Current Version | Previous Version | Graphics & Text | Print | Product List | Glossary Off
Versions: 1 2 3 4 5 6 7 8 9 10 11 12 13 14 15 16 17 18 19 20 21 22 23 24 25 26 27 28 29 30 31 32 33 34 35 36 37 38 39 40 41 42 43 44 45 46 47 48 49 50

000
ASUS43 KTOP 270108
RWRKS

WEATHER ROUNDUP FOR KANSAS
NATIONAL WEATHER SERVICE GOODLAND KS
800 PM CDT SUN MAR 26 2017

NOTE:  "FAIR" INDICATES FEW OR NO CLOUDS BELOW 12,000 FEET WITH NO
SIGNIFICANT WEATHER AND/OR OBSTRUCTIONS TO VISIBILITY.

KSZ001>006-013>018-027>032-041>047-270200-
NORTHWEST KANSAS

CITY           SKY/WX    TMP DP  RH WIND       PRES   REMARKS
GOODLAND       CLOUDY    46  44  93 SE6       29.91R
HAYS             N/A     45  44  97 N7        29.89F
HILL CITY      CLOUDY    46  45  96 NW5       29.94R
RUSSELL        CLOUDY    46  45  96 NE12      29.85F
$$

KSZ061>065-074>080-084>089-270200-
SOUTHWEST KANSAS

CITY           SKY/WX    TMP DP  RH WIND       PRES   REMARKS
DODGE CITY     CLOUDY    46  43  89 N14       29.87R
ELKHART          N/A     43  32  65 NW16        N/A
GARDEN CITY    CLOUDY    44  42  93 N13       29.90R
GREAT BEND     CLOUDY    46  45  96 N12       29.87R
LIBERAL        CLOUDY    48  37  66 NW18      29.89R
PRATT          TSTM      44  43  95 NE14      29.84R
$$

KSZ066>073-081>083-090>101-270200-
SOUTHEAST KANSAS

CITY           SKY/WX    TMP DP  RH WIND       PRES   REMARKS
CHANUTE        CLOUDY    57  51  80 E10       29.82R
COFFEYVILLE    PTCLDY    61  52  72 E9        29.77F
HUTCHINSON     CLOUDY    49  47  93 NE16G24   29.83S
MEDICINE LODGE   N/A     50  47  89 N17G31    29.79R
NEWTON         CLOUDY    49  48  97 NE15      29.84R
PARSONS        MOCLDY    60  52  74 E7        29.78F
WICHITA INTL   LGT RAIN  53  49  86 NE15      29.79R
WICHITA JABRA  CLOUDY    51  49  92 NE14G22   29.80S
WINFIELD       CLOUDY    60  50  69 NE18      29.73F
$$

KSZ007>012-019>026-033>040-048>060-102>105-270200-
NORTHEAST KANSAS

CITY           SKY/WX    TMP DP  RH WIND       PRES   REMARKS
CONCORDIA      LGT RAIN  47  46  97 E7        29.91F FOG
EMPORIA        LGT RAIN  50  50 100 NE15      29.84F
LAWRENCE       CLOUDY    51  46  83 N9        29.93S
MANHATTAN      LGT RAIN  49  47  93 NE7       29.92F
MARYSVILLE     CLOUDY    46  45  93 CALM      29.95F
OLATHE IND     CLOUDY    50  45  83 NE3       29.92F
OLATHE EXE     CLOUDY    51  45  79 NE3       29.92F
SALINA         RAIN      50  47  89 NE13      29.89S
TOPEKA BILLARD RAIN      49  48  97 N8        29.93S
TOPEKA FORBES  RAIN      50  47  89 N3        29.94R FOG
$$




USA.gov is the U.S. government's official web portal to all federal, state and local government web resources and services.